Location: St. Louis
(38.6270°N, 90.1994°W)
Time: 11:31:40
(UTC-06:00)

Altair - Pass Details

Date: 07 December 2021
Orbit: 1501 x 1683 km, 47.2° (Epoch: 25 January)

Event Time Altitude Azimuth Distance (km) Brightness Sun altitude
Rises 13:52:49 0° 225° (SW) 4,841 11.4 22.5°
Reaches altitude 10° 13:55:59 10° 223° (SW) 3,834 11.4 22.2°
Maximum altitude 14:05:38 70° 142° (SE) 1,654 8.2 21.2°
Drops below altitude 10° 14:14:55 10° 62° (ENE) 3,705 9.1 20.2°
Sets 14:17:56 0° 60° (ENE) 4,672 9.5 19.8°
